Year,Month,Day,Hour,Minute,Value (Times are PST for temperature in C)
2010,10,11,00,00,8.20
2010,10,11,00,01,8.20
2010,10,11,00,02,8.30
2010,10,11,00,03,8.30
2010,10,11,00,04,8.30
2010,10,11,00,05,8.40
2010,10,11,00,06,8.40
2010,10,11,00,07,8.40
2010,10,11,00,08,8.40
2010,10,11,00,09,8.40
2010,10,11,00,10,8.50
2010,10,11,00,11,8.60
2010,10,11,00,12,8.60
2010,10,11,00,13,8.60
2010,10,11,00,14,8.60
2010,10,11,00,15,8.60
2010,10,11,00,16,8.60
2010,10,11,00,17,8.50
2010,10,11,00,18,8.50
2010,10,11,00,19,8.40
2010,10,11,00,20,8.30
2010,10,11,00,21,8.30
2010,10,11,00,22,8.20
2010,10,11,00,23,8.20
2010,10,11,00,24,8.20
2010,10,11,00,25,8.20
2010,10,11,00,26,8.20
2010,10,11,00,27,8.20
2010,10,11,00,28,8.20
2010,10,11,00,29,8.30
2010,10,11,00,30,8.30
2010,10,11,00,31,8.30
2010,10,11,00,32,8.30
2010,10,11,00,33,8.30
2010,10,11,00,34,8.30
2010,10,11,00,35,8.40
2010,10,11,00,36,8.40
2010,10,11,00,37,8.50
2010,10,11,00,38,8.50
2010,10,11,00,39,8.50
2010,10,11,00,40,8.60
2010,10,11,00,41,8.50
2010,10,11,00,42,8.50
2010,10,11,00,43,8.50
2010,10,11,00,44,8.50
2010,10,11,00,45,8.60
2010,10,11,00,46,8.70
2010,10,11,00,47,8.70
2010,10,11,00,48,8.80
2010,10,11,00,49,8.80
2010,10,11,00,50,8.90
2010,10,11,00,51,8.90
2010,10,11,00,52,8.90
2010,10,11,00,53,8.90
2010,10,11,00,54,9.00
2010,10,11,00,55,9.00
2010,10,11,00,56,9.10
2010,10,11,00,57,9.10
2010,10,11,00,58,9.20
2010,10,11,00,59,9.20
2010,10,11,01,00,9.30
2010,10,11,01,01,9.40
2010,10,11,01,02,9.40
2010,10,11,01,03,9.40
2010,10,11,01,04,9.50
2010,10,11,01,05,9.50
2010,10,11,01,06,9.60
2010,10,11,01,07,9.60
2010,10,11,01,09,9.70
2010,10,11,01,10,9.70
2010,10,11,01,11,9.70
2010,10,11,01,12,9.70
2010,10,11,01,13,9.70
2010,10,11,01,14,9.70
2010,10,11,01,15,9.70
2010,10,11,01,16,9.70
2010,10,11,01,17,9.70
2010,10,11,01,18,9.60
2010,10,11,01,19,9.60
2010,10,11,01,20,9.60
2010,10,11,01,21,9.60
2010,10,11,01,22,9.60
2010,10,11,01,23,9.60
2010,10,11,01,24,9.60
2010,10,11,01,25,9.60
2010,10,11,01,26,9.50
2010,10,11,01,27,9.50
2010,10,11,01,28,9.50
2010,10,11,01,29,9.50
2010,10,11,01,30,9.50
2010,10,11,01,31,9.40
2010,10,11,01,32,9.40
2010,10,11,01,33,9.30
2010,10,11,01,34,9.30
2010,10,11,01,35,9.30
2010,10,11,01,36,9.30
2010,10,11,01,37,9.30
2010,10,11,01,38,9.30
2010,10,11,01,39,9.30
2010,10,11,01,40,9.30
2010,10,11,01,41,9.30
2010,10,11,01,42,9.30
2010,10,11,01,43,9.30
2010,10,11,01,44,9.30
2010,10,11,01,45,9.30
2010,10,11,01,46,9.30
2010,10,11,01,47,9.30
2010,10,11,01,48,9.30
2010,10,11,01,49,9.40
2010,10,11,01,50,9.40
2010,10,11,01,51,9.30
2010,10,11,01,52,9.30
2010,10,11,01,53,9.30
2010,10,11,01,54,9.30
2010,10,11,01,55,9.30
2010,10,11,01,56,9.30
2010,10,11,01,57,9.30
2010,10,11,01,58,9.30
2010,10,11,01,59,9.20
2010,10,11,02,00,9.20
2010,10,11,02,01,9.20
2010,10,11,02,02,9.20
2010,10,11,02,03,9.20
2010,10,11,02,04,9.10
2010,10,11,02,05,9.10
2010,10,11,02,06,9.10
2010,10,11,02,07,9.10
2010,10,11,02,08,9.00
2010,10,11,02,09,9.00
2010,10,11,02,10,9.00
2010,10,11,02,11,8.90
2010,10,11,02,12,8.90
2010,10,11,02,13,8.90
2010,10,11,02,14,8.90
2010,10,11,02,15,8.80
2010,10,11,02,16,8.80
2010,10,11,02,17,8.80
2010,10,11,02,18,8.80
2010,10,11,02,19,8.80
2010,10,11,02,20,8.80
2010,10,11,02,21,8.80
2010,10,11,02,22,8.80
2010,10,11,02,23,8.90
2010,10,11,02,24,8.90
2010,10,11,02,25,9.00
2010,10,11,02,26,9.00
2010,10,11,02,27,9.10
2010,10,11,02,28,9.20
2010,10,11,02,29,9.20
2010,10,11,02,30,9.20
2010,10,11,02,31,9.30
2010,10,11,02,32,9.30
2010,10,11,02,33,9.30
2010,10,11,02,34,9.30
2010,10,11,02,35,9.40
2010,10,11,02,36,9.40
2010,10,11,02,37,9.40
2010,10,11,02,38,9.40
2010,10,11,02,39,9.50
2010,10,11,02,40,9.50
2010,10,11,02,41,9.50
2010,10,11,02,42,9.50
2010,10,11,02,43,9.50
2010,10,11,02,44,9.50
2010,10,11,02,45,9.50
2010,10,11,02,46,9.50
2010,10,11,02,47,9.40
2010,10,11,02,48,9.40
2010,10,11,02,49,9.40
2010,10,11,02,50,9.40
2010,10,11,02,51,9.30
2010,10,11,02,52,9.30
2010,10,11,02,53,9.30
2010,10,11,02,54,9.30
2010,10,11,02,55,9.30
2010,10,11,02,56,9.30
2010,10,11,02,57,9.30
2010,10,11,02,58,9.30
2010,10,11,02,59,9.30
2010,10,11,03,00,9.30
2010,10,11,03,01,9.30
2010,10,11,03,02,9.30
2010,10,11,03,03,9.20
2010,10,11,03,06,9.20
2010,10,11,03,07,9.20
2010,10,11,03,08,9.20
2010,10,11,03,09,9.20
2010,10,11,03,10,9.20
2010,10,11,03,11,9.20
2010,10,11,03,12,9.20
2010,10,11,03,13,9.20
2010,10,11,03,14,9.10
2010,10,11,03,15,9.10
2010,10,11,03,16,9.10
2010,10,11,03,17,9.10
2010,10,11,03,18,9.20
2010,10,11,03,19,9.20
2010,10,11,03,20,9.30
2010,10,11,03,21,9.30
2010,10,11,03,22,9.30
2010,10,11,03,23,9.30
2010,10,11,03,24,9.30
2010,10,11,03,25,9.30
2010,10,11,03,26,9.30
2010,10,11,03,27,9.30
2010,10,11,03,28,9.40
2010,10,11,03,29,9.40
2010,10,11,03,30,9.40
2010,10,11,03,31,9.40
2010,10,11,03,32,9.40
2010,10,11,03,33,9.40
2010,10,11,03,34,9.40
2010,10,11,03,35,9.40
2010,10,11,03,36,9.40
2010,10,11,03,37,9.40
2010,10,11,03,38,9.40
2010,10,11,03,39,9.30
2010,10,11,03,40,9.30
2010,10,11,03,41,9.30
2010,10,11,03,42,9.30
2010,10,11,03,43,9.30
2010,10,11,03,44,9.30
2010,10,11,03,45,9.30
2010,10,11,03,46,9.40
2010,10,11,03,47,9.40
2010,10,11,03,48,9.40
2010,10,11,03,49,9.40
2010,10,11,03,50,9.40
2010,10,11,03,51,9.40
2010,10,11,03,52,9.40
2010,10,11,03,53,9.40
2010,10,11,03,54,9.40
2010,10,11,03,55,9.40
2010,10,11,03,56,9.30
2010,10,11,03,57,9.30
2010,10,11,03,58,9.30
2010,10,11,03,59,9.30
2010,10,11,04,00,9.30
2010,10,11,04,01,9.40
2010,10,11,04,02,9.40
2010,10,11,04,03,9.40
2010,10,11,04,04,9.50
2010,10,11,04,05,9.50
2010,10,11,04,06,9.40
2010,10,11,04,07,9.40
2010,10,11,04,08,9.40
2010,10,11,04,09,9.40
2010,10,11,04,10,9.30
2010,10,11,04,11,9.30
2010,10,11,04,12,9.20
2010,10,11,04,13,9.20
2010,10,11,04,14,9.10
2010,10,11,04,15,9.00
2010,10,11,04,16,8.90
2010,10,11,04,17,8.90
2010,10,11,04,18,8.90
2010,10,11,04,19,8.80
2010,10,11,04,20,8.70
2010,10,11,04,21,8.60
2010,10,11,04,22,8.50
2010,10,11,04,23,8.40
2010,10,11,04,24,8.40
2010,10,11,04,25,8.30
2010,10,11,04,26,8.30
2010,10,11,04,27,8.30
2010,10,11,04,28,8.20
2010,10,11,04,29,8.20
2010,10,11,04,30,8.20
2010,10,11,04,31,8.20
2010,10,11,04,32,8.10
2010,10,11,04,33,8.10
2010,10,11,04,34,8.10
2010,10,11,04,35,8.00
2010,10,11,04,36,8.00
2010,10,11,04,37,8.00
2010,10,11,04,38,8.00
2010,10,11,04,39,8.00
2010,10,11,04,40,7.90
2010,10,11,04,41,7.90
2010,10,11,04,42,7.90
2010,10,11,04,43,7.80
2010,10,11,04,44,7.80
2010,10,11,04,45,7.80
2010,10,11,04,46,7.70
2010,10,11,04,47,7.70
2010,10,11,04,48,7.70
2010,10,11,04,49,7.70
2010,10,11,04,50,7.60
2010,10,11,04,51,7.60
2010,10,11,04,52,7.60
2010,10,11,04,53,7.60
2010,10,11,04,54,7.60
2010,10,11,04,55,7.50
2010,10,11,04,56,7.40
2010,10,11,04,57,7.30
2010,10,11,04,58,7.30
2010,10,11,04,59,7.30
2010,10,11,05,00,7.20
2010,10,11,05,01,7.20
2010,10,11,05,02,7.20
2010,10,11,05,03,7.10
2010,10,11,05,04,7.20
2010,10,11,05,05,7.20
2010,10,11,05,06,7.20
2010,10,11,05,07,7.20
2010,10,11,05,08,7.20
2010,10,11,05,09,7.20
2010,10,11,05,10,7.20
2010,10,11,05,11,7.10
2010,10,11,05,12,7.10
2010,10,11,05,13,7.00
2010,10,11,05,14,7.00
2010,10,11,05,15,6.90
2010,10,11,05,16,6.90
2010,10,11,05,17,6.90
2010,10,11,05,18,6.80
2010,10,11,05,19,6.70
2010,10,11,05,20,6.60
2010,10,11,05,21,6.50
2010,10,11,05,22,6.50
2010,10,11,05,23,6.40
2010,10,11,05,24,6.30
2010,10,11,05,25,6.30
2010,10,11,05,26,6.20
2010,10,11,05,27,6.20
2010,10,11,05,28,6.10
2010,10,11,05,29,6.10
2010,10,11,05,30,6.10
2010,10,11,05,31,6.10
2010,10,11,05,32,6.10
2010,10,11,05,33,6.10
2010,10,11,05,34,6.20
2010,10,11,05,35,6.10
2010,10,11,05,36,6.10
2010,10,11,05,37,6.10
2010,10,11,05,38,6.10
2010,10,11,05,39,6.00
2010,10,11,05,40,6.00
2010,10,11,05,41,5.90
2010,10,11,05,42,5.90
2010,10,11,05,43,5.90
2010,10,11,05,44,5.80
2010,10,11,05,45,5.80
2010,10,11,05,46,5.80
2010,10,11,05,47,5.80
2010,10,11,05,48,5.80
2010,10,11,05,49,5.80
2010,10,11,05,50,5.80
2010,10,11,05,51,5.70
2010,10,11,05,52,5.70
2010,10,11,05,53,5.70
2010,10,11,05,54,5.70
2010,10,11,05,55,5.70
2010,10,11,05,56,5.70
2010,10,11,05,57,5.60
2010,10,11,05,58,5.60
2010,10,11,05,59,5.60
2010,10,11,06,00,5.60
2010,10,11,06,01,5.60
2010,10,11,06,02,5.50
2010,10,11,06,03,5.50
2010,10,11,06,04,5.50
2010,10,11,06,05,5.40
2010,10,11,06,06,5.40
2010,10,11,06,07,5.40
2010,10,11,06,08,5.40
2010,10,11,06,09,5.50
2010,10,11,06,10,5.50
2010,10,11,06,11,5.40
2010,10,11,06,12,5.40
2010,10,11,06,13,5.40
2010,10,11,06,14,5.40
2010,10,11,06,15,5.40
2010,10,11,06,16,5.40
2010,10,11,06,17,5.30
2010,10,11,06,18,5.30
2010,10,11,06,19,5.30
2010,10,11,06,20,5.30
2010,10,11,06,21,5.20
2010,10,11,06,22,5.20
2010,10,11,06,23,5.10
2010,10,11,06,24,5.10
2010,10,11,06,25,5.10
2010,10,11,06,26,5.00
2010,10,11,06,27,5.00
2010,10,11,06,28,4.90
2010,10,11,06,29,4.90
2010,10,11,06,30,4.90
2010,10,11,06,31,4.80
2010,10,11,06,32,4.80
2010,10,11,06,33,4.80
2010,10,11,06,34,4.80
2010,10,11,06,35,4.80
2010,10,11,06,36,4.80
2010,10,11,06,37,4.80
2010,10,11,06,38,4.80
2010,10,11,06,39,4.80
2010,10,11,06,40,4.80
2010,10,11,06,41,4.80
2010,10,11,06,42,4.80
2010,10,11,06,43,4.80
2010,10,11,06,44,4.80
2010,10,11,06,45,4.70
2010,10,11,06,46,4.70
2010,10,11,06,47,4.70
2010,10,11,06,48,4.70
2010,10,11,06,49,4.70
2010,10,11,06,50,4.60
2010,10,11,06,51,4.60
2010,10,11,06,52,4.60
2010,10,11,06,53,4.60
2010,10,11,06,54,4.60
2010,10,11,06,55,4.60
2010,10,11,06,56,4.50
2010,10,11,06,57,4.50
2010,10,11,06,58,4.40
2010,10,11,06,59,4.40
2010,10,11,07,00,4.30
2010,10,11,07,01,4.30
2010,10,11,07,02,4.30
2010,10,11,07,03,4.30
2010,10,11,07,04,4.30
2010,10,11,07,05,4.40
2010,10,11,07,06,4.40
2010,10,11,07,07,4.40
2010,10,11,07,08,4.50
2010,10,11,07,09,4.50
2010,10,11,07,10,4.50
2010,10,11,07,11,4.60
2010,10,11,07,12,4.60
2010,10,11,07,13,4.60
2010,10,11,07,14,4.60
2010,10,11,07,15,4.60
2010,10,11,07,16,4.60
2010,10,11,07,17,4.50
2010,10,11,07,18,4.50
2010,10,11,07,19,4.40
2010,10,11,07,20,4.40
2010,10,11,07,21,4.40
2010,10,11,07,22,4.30
2010,10,11,07,23,4.30
2010,10,11,07,24,4.40
2010,10,11,07,25,4.40
2010,10,11,07,26,4.40
2010,10,11,07,27,4.50
2010,10,11,07,28,4.50
2010,10,11,07,29,4.60
2010,10,11,07,30,4.70
2010,10,11,07,31,4.70
2010,10,11,07,32,4.80
2010,10,11,07,33,4.80
2010,10,11,07,34,4.80
2010,10,11,07,35,4.70
2010,10,11,07,36,4.70
2010,10,11,07,37,4.60
2010,10,11,07,38,4.60
2010,10,11,07,39,4.60
2010,10,11,07,40,4.60
2010,10,11,07,41,4.60
2010,10,11,07,42,4.60
2010,10,11,07,43,4.60
2010,10,11,07,44,4.60
2010,10,11,07,45,4.60
2010,10,11,07,46,4.60
2010,10,11,07,47,4.60
2010,10,11,07,48,4.60
2010,10,11,07,49,4.60
2010,10,11,07,50,4.60
2010,10,11,07,51,4.60
2010,10,11,07,52,4.60
2010,10,11,07,53,4.50
2010,10,11,07,54,4.50
2010,10,11,07,55,4.50
2010,10,11,07,56,4.40
2010,10,11,07,57,4.40
2010,10,11,07,58,4.40
2010,10,11,07,59,4.40
2010,10,11,08,00,4.40
2010,10,11,08,01,4.40
2010,10,11,08,02,4.40
2010,10,11,08,03,4.40
2010,10,11,08,04,4.40
2010,10,11,08,05,4.50
2010,10,11,08,06,4.50
2010,10,11,08,07,4.60
2010,10,11,08,08,4.70
2010,10,11,08,09,4.80
2010,10,11,08,10,4.90
2010,10,11,08,11,5.00
2010,10,11,08,12,5.00
2010,10,11,08,13,5.10
2010,10,11,08,14,5.10
2010,10,11,08,15,5.20
2010,10,11,08,16,5.20
2010,10,11,08,17,5.30
2010,10,11,08,18,5.30
2010,10,11,08,19,5.40
2010,10,11,08,20,5.50
2010,10,11,08,21,5.50
2010,10,11,08,22,5.60
2010,10,11,08,23,5.60
2010,10,11,08,24,5.70
2010,10,11,08,25,5.70
2010,10,11,08,26,5.80
2010,10,11,08,27,5.80
2010,10,11,08,28,5.90
2010,10,11,08,29,6.10
2010,10,11,08,30,6.20
2010,10,11,08,31,6.30
2010,10,11,08,32,6.40
2010,10,11,08,33,6.50
2010,10,11,08,34,6.60
2010,10,11,08,35,6.70
2010,10,11,08,36,6.80
2010,10,11,08,37,6.90
2010,10,11,08,38,7.00
2010,10,11,08,39,7.10
2010,10,11,08,40,7.20
2010,10,11,08,41,7.30
2010,10,11,08,42,7.40
2010,10,11,08,43,7.50
2010,10,11,08,44,7.50
2010,10,11,08,45,7.60
2010,10,11,08,46,7.60
2010,10,11,08,47,7.70
2010,10,11,08,48,7.70
2010,10,11,08,49,7.80
2010,10,11,08,50,7.80
2010,10,11,08,51,7.80
2010,10,11,08,52,7.90
2010,10,11,08,53,7.90
2010,10,11,08,54,7.90
2010,10,11,08,55,8.00
2010,10,11,08,56,8.00
2010,10,11,08,57,8.10
2010,10,11,08,58,8.10
2010,10,11,08,59,8.10
2010,10,11,09,00,8.10
2010,10,11,09,01,8.10
2010,10,11,09,02,8.20
2010,10,11,09,03,8.20
2010,10,11,09,04,8.20
2010,10,11,09,05,8.20
2010,10,11,09,06,8.20
2010,10,11,09,07,8.20
2010,10,11,09,08,8.30
2010,10,11,09,09,8.30
2010,10,11,09,10,8.30
2010,10,11,09,11,8.40
2010,10,11,09,12,8.40
2010,10,11,09,13,8.50
2010,10,11,09,14,8.60
2010,10,11,09,15,8.60
2010,10,11,09,16,8.60
2010,10,11,09,17,8.70
2010,10,11,09,18,8.70
2010,10,11,09,19,8.70
2010,10,11,09,20,8.80
2010,10,11,09,21,8.80
2010,10,11,09,22,8.80
2010,10,11,09,23,8.80
2010,10,11,09,24,8.80
2010,10,11,09,25,8.90
2010,10,11,09,26,8.90
2010,10,11,09,27,8.90
2010,10,11,09,28,8.90
2010,10,11,09,29,8.90
2010,10,11,09,30,9.00
2010,10,11,09,31,9.00
2010,10,11,09,32,9.10
2010,10,11,09,33,9.10
2010,10,11,09,34,9.20
2010,10,11,09,35,9.30
2010,10,11,09,36,9.30
2010,10,11,09,37,9.40
2010,10,11,09,38,9.40
2010,10,11,09,39,9.40
2010,10,11,09,40,9.50
2010,10,11,09,41,9.60
2010,10,11,09,42,9.60
2010,10,11,09,43,9.60
2010,10,11,09,44,9.60
2010,10,11,09,45,9.60
2010,10,11,09,46,9.60
2010,10,11,09,47,9.60
2010,10,11,09,48,9.70
2010,10,11,09,49,9.70
2010,10,11,09,50,9.70
2010,10,11,09,51,9.80
2010,10,11,09,52,9.80
2010,10,11,09,53,9.80
2010,10,11,09,54,9.80
2010,10,11,09,55,9.90
2010,10,11,09,56,9.90
2010,10,11,09,57,9.90
2010,10,11,09,58,9.90
2010,10,11,09,59,9.90
2010,10,11,10,00,9.90
2010,10,11,10,01,9.90
2010,10,11,10,02,9.90
2010,10,11,10,03,9.80
2010,10,11,10,04,9.80
2010,10,11,10,05,9.80
2010,10,11,10,06,9.80
2010,10,11,10,07,9.80
2010,10,11,10,08,9.80
2010,10,11,10,09,9.70
2010,10,11,10,10,9.70
2010,10,11,10,11,9.60
2010,10,11,10,12,9.60
2010,10,11,10,13,9.50
2010,10,11,10,14,9.40
2010,10,11,10,15,9.40
2010,10,11,10,16,9.30
2010,10,11,10,17,9.30
2010,10,11,10,18,9.30
2010,10,11,10,19,9.30
2010,10,11,10,20,9.30
2010,10,11,10,21,9.30
2010,10,11,10,22,9.30
2010,10,11,10,23,9.30
2010,10,11,10,24,9.30
2010,10,11,10,25,9.30
2010,10,11,10,26,9.30
2010,10,11,10,27,9.30
2010,10,11,10,28,9.30
2010,10,11,10,29,9.30
2010,10,11,10,30,9.30
2010,10,11,10,31,9.30
2010,10,11,10,32,9.30
2010,10,11,10,33,9.30
2010,10,11,10,34,9.30
2010,10,11,10,35,9.30
2010,10,11,10,36,9.30
2010,10,11,10,37,9.40
2010,10,11,10,38,9.40
2010,10,11,10,39,9.40
2010,10,11,10,40,9.40
2010,10,11,10,41,9.40
2010,10,11,10,42,9.40
2010,10,11,10,43,9.50
2010,10,11,10,44,9.50
2010,10,11,10,45,9.50
2010,10,11,10,46,9.60
2010,10,11,10,47,9.60
2010,10,11,10,48,9.60
2010,10,11,10,49,9.60
2010,10,11,10,50,9.70
2010,10,11,10,51,9.70
2010,10,11,10,52,9.70
2010,10,11,10,53,9.70
2010,10,11,10,54,9.80
2010,10,11,10,55,9.80
2010,10,11,10,56,9.80
2010,10,11,10,57,9.80
2010,10,11,10,58,9.80
2010,10,11,10,59,9.80
2010,10,11,11,00,9.80
2010,10,11,11,01,9.80
2010,10,11,11,02,9.80
2010,10,11,11,03,9.80
2010,10,11,11,04,9.90
2010,10,11,11,05,9.90
2010,10,11,11,06,9.90
2010,10,11,11,07,9.90
2010,10,11,11,08,9.90
2010,10,11,11,09,9.90
2010,10,11,11,10,9.90
2010,10,11,11,11,9.90
2010,10,11,11,12,10.00
2010,10,11,11,13,10.00
2010,10,11,11,14,10.00
2010,10,11,11,15,10.00
2010,10,11,11,16,10.00
2010,10,11,11,17,9.90
2010,10,11,11,18,9.90
2010,10,11,11,19,9.90
2010,10,11,11,20,9.90
2010,10,11,11,21,10.00
2010,10,11,11,22,10.00
2010,10,11,11,23,10.00
2010,10,11,11,24,10.00
2010,10,11,11,25,10.00
2010,10,11,11,26,10.00
2010,10,11,11,27,10.00
2010,10,11,11,28,10.10
2010,10,11,11,29,10.10
2010,10,11,11,30,10.20
2010,10,11,11,31,10.20
2010,10,11,11,32,10.30
2010,10,11,11,33,10.40
2010,10,11,11,34,10.40
2010,10,11,11,35,10.50
2010,10,11,11,36,10.60
2010,10,11,11,37,10.60
2010,10,11,11,38,10.60
2010,10,11,11,39,10.60
2010,10,11,11,40,10.70
2010,10,11,11,41,10.70
2010,10,11,11,42,10.80
2010,10,11,11,43,10.80
2010,10,11,11,44,10.80
2010,10,11,11,45,10.90
2010,10,11,11,46,11.00
2010,10,11,11,47,11.00
2010,10,11,11,48,11.00
2010,10,11,11,49,11.00
2010,10,11,11,50,10.90
2010,10,11,11,51,10.90
2010,10,11,11,52,10.90
2010,10,11,11,53,10.90
2010,10,11,11,54,10.90
2010,10,11,11,55,11.00
2010,10,11,11,56,11.00
2010,10,11,11,57,11.10
2010,10,11,11,58,11.10
2010,10,11,11,59,11.10
2010,10,11,12,00,11.20
2010,10,11,12,01,11.20
2010,10,11,12,02,11.20
2010,10,11,12,03,11.20
2010,10,11,12,04,11.20
2010,10,11,12,05,11.30
2010,10,11,12,06,11.30
2010,10,11,12,07,11.30
2010,10,11,12,08,11.40
2010,10,11,12,09,11.40
2010,10,11,12,10,11.40
2010,10,11,12,11,11.40
2010,10,11,12,12,11.40
2010,10,11,12,13,11.40
2010,10,11,12,14,11.50
2010,10,11,12,15,11.50
2010,10,11,12,16,11.50
2010,10,11,12,17,11.50
2010,10,11,12,18,11.60
2010,10,11,12,19,11.60
2010,10,11,12,20,11.60
2010,10,11,12,21,11.60
2010,10,11,12,22,11.60
2010,10,11,12,23,11.60
2010,10,11,12,24,11.60
2010,10,11,12,25,11.60
2010,10,11,12,26,11.70
2010,10,11,12,27,11.70
2010,10,11,12,28,11.70
2010,10,11,12,29,11.70
2010,10,11,12,30,11.70
2010,10,11,12,31,11.70
2010,10,11,12,32,11.60
2010,10,11,12,33,11.60
2010,10,11,12,34,11.60
2010,10,11,12,35,11.60
2010,10,11,12,36,11.60
2010,10,11,12,37,11.70
2010,10,11,12,38,11.70
2010,10,11,12,39,11.80
2010,10,11,12,40,11.80
2010,10,11,12,41,11.90
2010,10,11,12,42,11.90
2010,10,11,12,43,11.90
2010,10,11,12,44,11.90
2010,10,11,12,45,11.80
2010,10,11,12,46,11.70
2010,10,11,12,47,11.70
2010,10,11,12,48,11.70
2010,10,11,12,49,11.70
2010,10,11,12,50,11.70
2010,10,11,12,51,11.70
2010,10,11,12,52,11.80
2010,10,11,12,53,11.80
2010,10,11,12,54,11.80
2010,10,11,12,55,11.80
2010,10,11,12,56,11.80
2010,10,11,12,57,11.80
2010,10,11,12,58,11.80
2010,10,11,12,59,11.80
2010,10,11,13,00,11.80
2010,10,11,13,01,11.90
2010,10,11,13,02,11.90
2010,10,11,13,03,11.90
2010,10,11,13,04,11.90
2010,10,11,13,05,12.00
2010,10,11,13,06,12.10
2010,10,11,13,07,12.10
2010,10,11,13,08,12.10
2010,10,11,13,09,12.20
2010,10,11,13,10,12.20
2010,10,11,13,11,12.20
2010,10,11,13,12,12.20
2010,10,11,13,13,12.30
2010,10,11,13,14,12.30
2010,10,11,13,15,12.30
2010,10,11,13,16,12.20
2010,10,11,13,17,12.20
2010,10,11,13,18,12.20
2010,10,11,13,19,12.30
2010,10,11,13,20,12.30
2010,10,11,13,21,12.30
2010,10,11,13,22,12.30
2010,10,11,13,23,12.20
2010,10,11,13,24,12.20
2010,10,11,13,25,12.20
2010,10,11,13,26,12.30
2010,10,11,13,27,12.30
2010,10,11,13,28,12.30
2010,10,11,13,29,12.30
2010,10,11,13,30,12.30
2010,10,11,13,31,12.30
2010,10,11,13,32,12.40
2010,10,11,13,33,12.40
2010,10,11,13,34,12.50
2010,10,11,13,35,12.60
2010,10,11,13,36,12.60
2010,10,11,13,37,12.70
2010,10,11,13,38,12.60
2010,10,11,13,39,12.60
2010,10,11,13,40,12.60
2010,10,11,13,41,12.60
2010,10,11,13,42,12.60
2010,10,11,13,43,12.60
2010,10,11,13,44,12.60
2010,10,11,13,45,12.70
2010,10,11,13,46,12.70
2010,10,11,13,47,12.80
2010,10,11,13,48,12.80
2010,10,11,13,49,12.80
2010,10,11,13,50,12.80
2010,10,11,13,51,12.80
2010,10,11,13,52,12.80
2010,10,11,13,53,12.70
2010,10,11,13,54,12.70
2010,10,11,13,55,12.70
2010,10,11,13,56,12.80
2010,10,11,13,57,12.80
2010,10,11,13,58,12.80
2010,10,11,13,59,12.90
2010,10,11,14,00,12.90
2010,10,11,14,01,12.90
2010,10,11,14,02,12.90
2010,10,11,14,03,13.00
2010,10,11,14,04,13.00
2010,10,11,14,05,13.10
2010,10,11,14,06,13.10
2010,10,11,14,07,13.20
2010,10,11,14,08,13.30
2010,10,11,14,09,13.30
2010,10,11,14,10,13.30
2010,10,11,14,11,13.30
2010,10,11,14,12,13.40
2010,10,11,14,13,13.40
2010,10,11,14,14,13.40
2010,10,11,14,15,13.40
2010,10,11,14,16,13.50
2010,10,11,14,17,13.50
2010,10,11,14,18,13.50
2010,10,11,14,19,13.50
2010,10,11,14,20,13.40
2010,10,11,14,21,13.30
2010,10,11,14,22,13.30
2010,10,11,14,23,13.30
2010,10,11,14,24,13.20
2010,10,11,14,25,13.20
2010,10,11,14,26,13.20
2010,10,11,14,27,13.30
2010,10,11,14,28,13.30
2010,10,11,14,29,13.40
2010,10,11,14,30,13.40
2010,10,11,14,31,13.50
2010,10,11,14,32,13.50
2010,10,11,14,33,13.60
2010,10,11,14,34,13.60
2010,10,11,14,35,13.60
2010,10,11,14,36,13.50
2010,10,11,14,37,13.40
2010,10,11,14,38,13.30
2010,10,11,14,39,13.30
2010,10,11,14,40,13.30
2010,10,11,14,41,13.30
2010,10,11,14,42,13.30
2010,10,11,14,43,13.30
2010,10,11,14,44,13.20
2010,10,11,14,45,13.10
2010,10,11,14,46,13.10
2010,10,11,14,47,13.10
2010,10,11,14,48,13.10
2010,10,11,14,49,13.00
2010,10,11,14,50,13.00
2010,10,11,14,51,13.00
2010,10,11,14,52,13.00
2010,10,11,14,53,13.00
2010,10,11,14,54,13.10
2010,10,11,14,55,13.10
2010,10,11,14,56,13.00
2010,10,11,14,57,13.00
2010,10,11,14,58,12.90
2010,10,11,14,59,12.90
2010,10,11,15,00,12.90
2010,10,11,15,01,12.90
2010,10,11,15,02,12.90
2010,10,11,15,03,12.90
2010,10,11,15,04,12.90
2010,10,11,15,05,13.00
2010,10,11,15,06,13.00
2010,10,11,15,07,13.10
2010,10,11,15,08,13.10
2010,10,11,15,09,13.20
2010,10,11,15,10,13.20
2010,10,11,15,11,13.20
2010,10,11,15,12,13.20
2010,10,11,15,13,13.20
2010,10,11,15,14,13.20
2010,10,11,15,15,13.30
2010,10,11,15,16,13.30
2010,10,11,15,17,13.30
2010,10,11,15,18,13.30
2010,10,11,15,19,13.20
2010,10,11,15,20,13.20
2010,10,11,15,21,13.10
2010,10,11,15,22,13.10
2010,10,11,15,23,13.20
2010,10,11,15,24,13.20
2010,10,11,15,25,13.20
2010,10,11,15,26,13.30
2010,10,11,15,27,13.30
2010,10,11,15,28,13.30
2010,10,11,15,29,13.40
2010,10,11,15,30,13.40
2010,10,11,15,31,13.40
2010,10,11,15,32,13.40
2010,10,11,15,33,13.40
2010,10,11,15,34,13.40
2010,10,11,15,35,13.40
2010,10,11,15,36,13.40
2010,10,11,15,37,13.50
2010,10,11,15,38,13.40
2010,10,11,15,39,13.40
2010,10,11,15,40,13.50
2010,10,11,15,41,13.50
2010,10,11,15,42,13.40
2010,10,11,15,43,13.40
2010,10,11,15,44,13.30
2010,10,11,15,45,13.30
2010,10,11,15,46,13.30
2010,10,11,15,47,13.30
2010,10,11,15,48,13.30
2010,10,11,15,49,13.30
2010,10,11,15,50,13.30
2010,10,11,15,51,13.20
2010,10,11,15,52,13.20
2010,10,11,15,53,13.20
2010,10,11,15,54,13.20
2010,10,11,15,55,13.20
2010,10,11,15,56,13.20
2010,10,11,15,57,13.20
2010,10,11,15,58,13.20
2010,10,11,15,59,13.20
2010,10,11,16,00,13.20
2010,10,11,16,01,13.20
2010,10,11,16,02,13.20
2010,10,11,16,03,13.20
2010,10,11,16,04,13.20
2010,10,11,16,05,13.20
2010,10,11,16,06,13.20
2010,10,11,16,07,13.20
2010,10,11,16,08,13.20
2010,10,11,16,09,13.20
2010,10,11,16,10,13.20
2010,10,11,16,11,13.10
2010,10,11,16,12,13.10
2010,10,11,16,13,13.10
2010,10,11,16,14,13.10
2010,10,11,16,15,13.10
2010,10,11,16,16,13.10
2010,10,11,16,17,13.10
2010,10,11,16,18,13.10
2010,10,11,16,19,13.00
2010,10,11,16,20,13.00
2010,10,11,16,21,13.00
2010,10,11,16,22,13.00
2010,10,11,16,23,13.10
2010,10,11,16,24,13.10
2010,10,11,16,25,13.10
2010,10,11,16,26,13.10
2010,10,11,16,27,13.10
2010,10,11,16,28,13.20
2010,10,11,16,29,13.20
2010,10,11,16,30,13.20
2010,10,11,16,31,13.20
2010,10,11,16,32,13.20
2010,10,11,16,33,13.20
2010,10,11,16,34,13.20
2010,10,11,16,35,13.20
2010,10,11,16,36,13.10
2010,10,11,16,37,13.10
2010,10,11,16,38,13.10
2010,10,11,16,39,13.10
2010,10,11,16,40,13.00
2010,10,11,16,41,13.10
2010,10,11,16,42,13.10
2010,10,11,16,43,13.10
2010,10,11,16,44,13.00
2010,10,11,16,45,13.00
2010,10,11,16,46,13.00
2010,10,11,16,47,12.90
2010,10,11,16,48,12.90
2010,10,11,16,49,12.90
2010,10,11,16,50,12.80
2010,10,11,16,51,12.80
2010,10,11,16,52,12.80
2010,10,11,16,53,12.80
2010,10,11,16,54,12.80
2010,10,11,16,55,12.80
2010,10,11,16,56,12.70
2010,10,11,16,57,12.70
2010,10,11,16,58,12.70
2010,10,11,16,59,12.70
2010,10,11,17,00,12.60
2010,10,11,17,01,12.60
2010,10,11,17,02,12.60
2010,10,11,17,03,12.60
2010,10,11,17,04,12.60
2010,10,11,17,05,12.50
2010,10,11,17,06,12.50
2010,10,11,17,07,12.40
2010,10,11,17,08,12.40
2010,10,11,17,09,12.30
2010,10,11,17,10,12.30
2010,10,11,17,11,12.30
2010,10,11,17,12,12.20
2010,10,11,17,13,12.20
2010,10,11,17,14,12.20
2010,10,11,17,15,12.20
2010,10,11,17,16,12.20
2010,10,11,17,17,12.20
2010,10,11,17,18,12.10
2010,10,11,17,19,12.10
2010,10,11,17,20,12.10
2010,10,11,17,21,12.10
2010,10,11,17,22,12.10
2010,10,11,17,23,12.10
2010,10,11,17,24,12.10
2010,10,11,17,25,12.00
2010,10,11,17,26,12.00
2010,10,11,17,27,12.00
2010,10,11,17,28,12.00
2010,10,11,17,29,12.00
2010,10,11,17,30,11.90
2010,10,11,17,31,11.90
2010,10,11,17,32,11.90
2010,10,11,17,33,11.90
2010,10,11,17,34,11.90
2010,10,11,17,35,11.90
2010,10,11,17,36,11.90
2010,10,11,17,37,11.80
2010,10,11,17,38,11.80
2010,10,11,17,39,11.80
2010,10,11,17,40,11.80
2010,10,11,17,41,11.80
2010,10,11,17,42,11.80
2010,10,11,17,43,11.80
2010,10,11,17,44,11.80
2010,10,11,17,45,11.80
2010,10,11,17,46,11.80
2010,10,11,17,47,11.80
2010,10,11,17,48,11.80
2010,10,11,17,49,11.80
2010,10,11,17,50,11.80
2010,10,11,17,51,11.80